TimeEDT,TemperatureF,Dew PointF,Humidity,Sea Level PressureIn,VisibilityMPH,Wind Direction,Wind SpeedMPH,Gust SpeedMPH,PrecipitationIn,Events,Conditions,WindDirDegrees,DateUTC
12:53 AM,73.0,71.1,93,29.93,10.0,Calm,Calm,-,N/A,,Scattered Clouds,0,2013-08-04 04:53:00
1:53 AM,73.0,70.0,90,29.92,10.0,Calm,Calm,-,N/A,,Scattered Clouds,0,2013-08-04 05:53:00
2:53 AM,75.0,69.1,82,29.91,10.0,NNW,5.8,-,N/A,,Mostly Cloudy,330,2013-08-04 06:53:00
3:53 AM,73.9,70.0,87,29.90,10.0,NNW,5.8,-,0.00,,Overcast,340,2013-08-04 07:53:00
4:53 AM,73.0,69.1,87,29.91,10.0,NW,5.8,-,N/A,,Overcast,310,2013-08-04 08:53:00
5:53 AM,73.0,68.0,84,29.91,10.0,NW,3.5,-,0.00,,Mostly Cloudy,310,2013-08-04 09:53:00
6:53 AM,72.0,68.0,87,29.93,10.0,Calm,Calm,-,N/A,,Clear,0,2013-08-04 10:53:00
7:53 AM,73.0,68.0,84,29.95,10.0,NNW,6.9,-,N/A,,Overcast,340,2013-08-04 11:53:00
8:53 AM,75.9,66.9,74,29.97,10.0,North,9.2,-,N/A,,Overcast,350,2013-08-04 12:53:00
9:53 AM,79.0,66.0,64,29.98,10.0,North,11.5,-,N/A,,Clear,10,2013-08-04 13:53:00
10:53 AM,81.0,64.9,58,29.99,10.0,NE,10.4,-,N/A,,Partly Cloudy,40,2013-08-04 14:53:00
11:53 AM,82.0,63.0,52,29.99,10.0,North,8.1,-,N/A,,Scattered Clouds,10,2013-08-04 15:53:00
12:53 PM,84.0,61.0,46,29.98,10.0,North,10.4,-,N/A,,Partly Cloudy,350,2013-08-04 16:53:00
1:53 PM,84.9,57.0,38,29.97,10.0,NNW,11.5,19.6,N/A,,Partly Cloudy,340,2013-08-04 17:53:00
2:53 PM,82.9,57.9,42,29.96,10.0,North,8.1,-,N/A,,Mostly Cloudy,360,2013-08-04 18:53:00
3:53 PM,82.0,57.9,44,29.96,10.0,NNW,6.9,-,N/A,,Scattered Clouds,340,2013-08-04 19:53:00
4:53 PM,84.9,57.9,40,29.95,10.0,NNW,9.2,-,N/A,,Clear,340,2013-08-04 20:53:00
5:53 PM,82.9,59.0,44,29.96,10.0,NE,6.9,-,N/A,,Partly Cloudy,50,2013-08-04 21:53:00
6:53 PM,82.0,62.1,51,29.96,10.0,ENE,3.5,-,N/A,,Scattered Clouds,70,2013-08-04 22:53:00
7:53 PM,78.1,68.0,71,29.97,10.0,Calm,Calm,-,N/A,,Mostly Cloudy,0,2013-08-04 23:53:00
8:53 PM,75.9,62.1,62,29.98,10.0,NNE,4.6,-,N/A,,Overcast,30,2013-08-05 00:53:00
9:53 PM,72.0,66.0,81,30.01,10.0,Calm,Calm,-,N/A,,Overcast,0,2013-08-05 01:53:00
10:53 PM,72.0,66.0,81,30.02,10.0,Calm,Calm,-,N/A,,Overcast,0,2013-08-05 02:53:00
11:53 PM,69.1,66.0,90,30.03,10.0,Calm,Calm,-,N/A,,Mostly Cloudy,0,2013-08-05 03:53:00